Regional Weather Roundup
Issued by NWS

Home | Current Version | Previous Version | Graphics & Text | Print | Product List | Glossary On
Versions: 1 2 3 4 5 6 7 8 9 10 11 12 13 14 15 16 17 18 19 20 21 22 23 24 25 26 27 28 29 30 31 32 33 34 35 36 37 38 39 40 41 42 43 44 45 46 47 48 49 50
000
ASUS43 KDMX 050307
RWRIA

WEATHER ROUNDUP FOR IOWA
NATIONAL WEATHER SERVICE DES MOINES IA
1000 PM CDT MON MAY 04 2015

NOTE: "FAIR" INDICATES FEW OR NO CLOUDS BELOW 12,000 FEET WITH NO
SIGNIFICANT WEATHER AND/OR OBSTRUCTIONS TO VISIBILITY.

* - THESE STATIONS ARE NOT NWS STATIONS...THUS NOT UNDER NWS
QUALITY CONTROL.  THEY ALSO DO NOT REPORT WEATHER SUCH
AS PRECIPITATION OR FOG.

IAZ001>003-012>014-020>022-031>034-043>046-050400-
   NORTHWEST IOWA

CITY           SKY/WX    TMP DP  RH WIND       PRES   REMARKS
CARROLL *      CLOUDY    55  55 100 NE10      30.10S
CHEROKEE *     CLOUDY    55  48  76 E3        30.11F
DENISON *      CLOUDY    55  55 100 E9        30.07F
LE MARS *      CLEAR     59  46  63 VRB6      30.11S
ORANGE CITY *  CLEAR     57  41  54 CALM      30.12R
SHELDON *      CLEAR     55  39  54 NE9       30.11S
SIOUX CITY     CLOUDY    58  49  72 E7        30.11R
SPENCER        CLOUDY    59  41  51 E9        30.13R
STORM LAKE *   CLOUDY    55  50  82 E9        30.12S
$$

IAZ055>058-069>071-079>083-090>094-050400-
   SOUTHWEST IOWA

CITY           SKY/WX    TMP DP  RH WIND       PRES   REMARKS
ATLANTIC *     CLOUDY    59  57  94 NE13      30.07S
AUDUBON *      RAIN      55  54  94 E8        30.10S
CLARINDA *     LGT RAIN  64  64 100 E7        30.06F
COUNCIL BLFS * CLOUDY    59  59 100 NE10      30.08R
CRESTON *      CLOUDY    63  63 100 E12       30.08R FOG
HARLAN  *      LGT RAIN  57  57 100 E10G17    30.11S
LAMONI         LGT RAIN  64  61  90 CALM      30.09R
RED OAK *      CLOUDY    63  63 100 E8        30.06S FOG
SHENANDOAH *   CLOUDY    64  64 100 E9        30.06R FOG
$$

IAZ047>049-059>061-072>074-084-050400-
   CENTRAL IOWA

CITY           SKY/WX    TMP DP  RH WIND       PRES   REMARKS
AMES           CLOUDY    59  54  83 NE7       30.11S
ANKENY *       CLOUDY    63  61  94 NE8       30.09S
CHARITON *     LGT RAIN  64  63  94 NE8       30.07S
DES MOINES     LGT RAIN  64  60  87 E12       30.08S
GRINNELL*      LGT RAIN  61  61 100 NE13      30.11S
KNOXVILLE *    CLOUDY    64  63  94 NE10      30.07S FOG
MARSHALLTOWN   CLOUDY    60  58  92 NE10      30.10S
PELLA *        LGT RAIN  64  64 100 NE6       30.09S
PERRY *        CLOUDY    59  55  88 NE9       30.09S
$$

IAZ004>006-015-016-023>025-035-036-050400-
   NORTH CENTRAL IOWA

CITY           SKY/WX    TMP DP  RH WIND       PRES   REMARKS
ALGONA *       CLEAR     61  41  48 NE7       30.14S
CLARION *      MOCLDY    59  52  77 NE6       30.12S
ESTHERVILLE    MOCLDY    54  37  52 NE6       30.14R
FORT DODGE *   CLOUDY    57  48  72 E10       30.12S
MASON CITY     CLOUDY    57  44  62 NE8       30.15S
FOREST CITY *  CLEAR     57  37  47 NE6       30.14F
IOWA FALLS *   LGT RAIN  59  52  77 NE7       30.13F
$$

IAZ007>011-017>019-026>030-037>042-050>054-066-050400-
   NORTHEAST IOWA

CITY           SKY/WX    TMP DP  RH WIND       PRES   REMARKS
CEDAR RAPIDS   TSTM      63  63 100 NE13G21   30.11R FOG
CHARLES CITY * CLOUDY    61  43  51 NE9       30.15S
CLINTON *      CLOUDY    63  61  94 E16       30.14S
DECORAH *      CLOUDY    63  39  42 NE6       30.14F
DUBUQUE        RAIN      64  60  87 E3        30.14R FOG
MONTICELLO *   LGT RAIN  64  64 100 NE7       30.13R
OELWEIN *      CLOUDY    61  55  82 NE5       30.14S
WATERLOO       LGT RAIN  59  55  87 NE6       30.12S
$$

IAZ064-065-067-068-078-050400-
   EAST CENTRAL IOWA

CITY           SKY/WX    TMP DP  RH WIND       PRES   REMARKS
DAVENPORT      CLOUDY    65  62  90 NE6       30.11R
IOWA CITY      CLOUDY    65  62  90 E8        30.10R
MT. PLEASANT * CLOUDY    64  64 100 E7        30.07F
MUSCATINE *    CLOUDY    64  61  88 E8G17     30.09F
QUAD CITIES    CLOUDY    66  61  84 E9        30.10R
$$

IAZ062-063-075>077-085>089-095>099-050400-
   SOUTHEAST IOWA

CITY           SKY/WX    TMP DP  RH WIND       PRES   REMARKS
BURLINGTON     CLOUDY    66  62  87 NE3       30.07R
FAIRFIELD *    PTCLDY    64  63  94 E8        30.05F
FORT MADISON * MOCLDY    64  59  82 E5        30.08R
KEOKUK *       LGT RAIN  66  63  88 SW9       30.08R
OSKALOOSA *    LGT RAIN  64  63  94 NE12      30.08R
CENTERVILLE *  LGT RAIN  66  66 100 N8        30.08R
OTTUMWA        CLOUDY    67  64  90 NE8       30.07R
WASHINGTON *   CLOUDY    66  66 100 E9        30.07S FOG
$$

ABBREVIATIONS USED IN REMARKS
   TC - TEMPERATURES IN CELSIUS
  WCI - WIND CHILL INDEX
   HX - HEAT INDEX
  VSB - VISIBILITY
$$




USA.gov is the U.S. government's official web portal to all federal, state and local government web resources and services.